Location: Dvur Kralove nad Labem
(50.4330°N, 15.8170°E)
Time: 15:04:48
(UTC+02:00)

ISS - Pass Details

Date: 24 May 2018
Orbit: 402 x 407 km, 51.6° (Epoch: 24 May)

Event Time Altitude Azimuth Distance (km) Brightness Sun altitude
Rises 22:51:53 0° 261° (W) 2,317 0.3 -13.8°
Reaches altitude 10° 22:53:58 10° 262° (W) 1,458 -0.7 -14.0°
Maximum altitude 22:57:14 79° 349° (N) 416 -3.7 -14.2°
Drops below altitude 10° 23:00:31 10° 77° (ENE) 1,459 -1.2 -14.4°
Sets 23:02:36 0° 79° (E) 2,319 -0.1 -14.6°
